[[{"header":{"parameterUnit":"m.s-1","parameterCategory":1,"la1":30.2991,"la2":30.254,"lo1":-89.0895,"lo2":-89.0444,"dy":0.0017,"dx":0.0017,"nx":28,"ny":28,"refTime":"2024-08-11T15:00:00:Z","depth":0,"parameterNumber":2,"parameterNumberName":"U-component_of_WINDS"},"data":[0,0,0,0,0,0,0,0,0,0,0,0,0,0,0,0,0,0,0,0,0,0,0,0,0,0,0,0,0,0,0,0,0,0,0,0,0,0,0,0,0,0,0,0,0,0,0,0,0,0,0,0,0,0,0,0,0,0,4.0918,4.0919,0,4.1022,4.1023,4.1024,4.097,4.0968,4.0965,4.0962,4.1068,4.1074,4.1079,0,0,0,0,0,0,0,0,0,0,0,0,0,4.0669,4.0674,4.0917,4.0919,4.092,4.1022,4.1023,4.1025,4.0971,4.0968,4.0964,4.0961,4.1067,4.1073,4.1079,0,0,0,0,0,0,0,0,0,0,0,0,0,4.0776,4.0676,4.0917,4.0906,4.0905,4.1022,4.1023,4.1025,4.0972,4.0967,4.0963,4.0959,4.1064,4.1072,4.108,4.1214,0,0,4.1105,4.1109,0,0,0,0,0,0,0,0,4.077,4.0785,4.0906,4.0907,4.0907,4.0979,4.0975,4.1088,4.0973,4.0947,4.0962,4.0957,4.1042,4.1052,4.108,4.1219,4.1223,4.1106,4.1111,4.1114,4.1117,0,0,0,0,0,0,0,4.0763,4.078,4.0959,4.0908,4.0908,4.0894,4.0905,4.0996,4.1016,4.0948,4.0945,4.0958,4.1041,4.1073,4.1082,4.1225,4.1106,4.1113,4.1118,4.1121,4.1475,4.1479,0,0,0,0,0,0,4.0756,4.0774,4.0955,4.0962,4.0827,4.0902,4.0914,4.096,4.1015,4.1019,4.0961,4.0955,4.1061,4.1073,4.1086,4.1243,4.1114,4.1122,4.1126,4.147,4.1476,4.1481,0,0,0,0,0,0,4.0751,4.0773,4.0951,4.0867,4.0889,4.0911,4.0963,4.0964,4.0995,4.1025,4.1028,4.099,4.1058,4.1074,4.1182,4.1246,4.1125,4.1133,4.1465,4.1472,4.1478,4.1559,0,0,0,0,0,0,4.0744,4.0771,4.0822,4.0869,4.0894,4.1046,4.0967,4.0969,4.101,4.1002,4.1052,4.1057,4.1056,4.117,4.119,4.1255,4.1139,4.1459,4.1468,4.1476,4.1551,4.1568,4.1582,0,0,0,0,0,4.0735,4.0841,4.0825,4.0847,4.0958,4.105,4.1064,4.1061,4.1015,4.1066,4.1085,4.1055,4.1237,4.1181,4.1203,4.1272,4.1455,4.1465,4.1475,4.1544,4.1564,4.1582,0,0,0,0,0,0,4.0802,4.0847,4.083,4.0954,4.0999,4.104,4.1104,4.1084,4.1142,4.1132,4.1127,4.1139,4.1249,4.1272,4.121,4.1402,4.1338,4.1353,4.1383,4.1403,4.1418,4.1409,4.1146,0,0,0,0,0,4.0831,4.0902,4.0938,4.1044,4.1067,4.1083,4.1122,4.1117,4.1162,4.118,4.1207,4.1252,4.1318,4.1363,4.1426,4.1555,4.1563,4.1613,4.1629,4.1642,4.1653,4.172,4.1742,4.1514,4.1514,4.1514,0,0,4.0891,4.0925,4.097,4.1058,4.1092,4.1164,4.1098,4.1179,4.1231,4.1192,4.1294,4.1316,4.1365,4.1483,4.1536,4.1505,4.1719,4.1655,4.1665,4.1669,4.1733,4.1754,4.1773,4.1521,4.152,4.1519,0,0,4.1038,4.1072,4.1163,4.1198,4.125,4.1259,4.1281,4.1327,4.1339,4.1442,4.1413,4.1476,4.1593,4.1628,4.1661,4.1822,4.1795,4.1843,4.1924,4.1989,4.2007,4.2023,4.2077,4.2096,4.1856,4.1856,4.1856,0,4.1106,4.1215,4.1212,4.1294,4.1332,4.1301,4.1392,4.1426,4.1496,4.1523,4.1487,4.1631,4.1663,4.1787,4.1826,4.1855,4.1878,4.1835,4.2005,4.2021,4.2036,4.2087,4.2107,4.1861,4.186,4.186,4.1859,0,4.1294,4.137,4.1437,4.1505,4.1552,4.1638,4.1647,4.1695,4.1685,4.1698,4.1802,4.1839,4.1908,4.1938,4.193,4.2061,4.2039,4.2006,4.194,4.2062,4.211,4.213,4.1868,4.1866,4.1865,4.1864,0,0,4.1483,4.1549,4.1573,4.1602,4.1657,4.1715,4.18,4.1867,4.1906,4.1957,4.2025,4.2124,4.2092,4.213,4.2127,4.2185,4.2305,4.2143,4.2143,4.2168,4.2447,4.247,4.2492,4.2289,4.2293,4.2296,4.2442,0,4.163,4.1777,4.1777,4.1912,4.1981,4.1953,4.2026,4.2067,4.2082,4.2141,4.2158,4.2226,4.2181,4.2203,4.226,4.2278,4.236,4.2268,4.235,4.2353,4.2334,4.2518,4.2542,4.2678,4.2461,4.2464,4.2466,0,4.1821,4.1876,4.2018,4.2061,4.209,4.2156,4.2216,4.2275,4.2321,4.2327,4.237,4.2357,4.2441,4.2377,4.2492,4.243,4.2464,4.2478,4.2483,4.2487,4.2414,4.2523,4.2721,4.274,4.2496,4.2494,4.2492,0,4.1939,4.205,4.2148,4.2174,4.2229,4.2275,4.23,4.2342,4.2382,4.2436,4.2461,4.2525,4.2558,4.2607,4.2611,4.2565,4.2726,4.2663,4.2731,4.2731,4.2763,4.276,4.2965,4.2793,4.2792,4.2792,4.2792,0,4.2101,4.2188,4.2201,4.2261,4.2357,4.2357,4.2452,4.2473,4.251,4.2573,4.2554,4.2613,4.2617,4.2678,4.2682,4.2774,4.2791,4.2797,4.2796,4.2796,4.2795,4.2815,4.2804,4.2797,4.2796,4.2795,4.2794,0,4.2247,4.226,4.2365,4.2408,4.2421,4.2489,4.2526,4.2582,4.2596,4.2675,4.2694,4.2715,4.2785,4.2795,4.2878,4.288,4.299,4.2982,4.2974,4.2972,4.3038,4.303,4.326,4.3289,4.3101,4.3103,4.3105,0,4.2347,4.2413,4.2463,4.2504,4.2531,4.2597,4.2638,4.2641,4.2684,4.2741,4.279,4.2859,4.2913,4.3026,4.3048,4.3111,4.3101,4.3177,4.311,4.3107,4.3097,4.3091,4.3096,4.3189,4.3191,4.3193,4.3194,0,4.2522,4.2525,4.2585,4.2647,4.2696,4.2745,4.2791,4.2825,4.2834,4.2883,4.2954,4.2997,4.3081,4.3148,4.321,4.3234,4.3215,4.3216,4.3234,4.3232,4.3224,4.3225,4.3005,4.3209,4.3208,4.3207,4.3206,4.3205,4.2646,4.2702,4.2746,4.2812,4.2847,4.2891,4.2945,4.2966,4.3025,4.3093,4.3092,4.317,4.3213,4.3294,4.3323,4.3383,4.3358,4.3386,4.3392,4.3398,4.3402,4.3218,4.3395,4.3395,4.3394,4.3394,4.3394,0,4.2816,4.2843,4.2905,4.2969,4.3021,4.3001,4.305,4.3094,4.3163,4.3206,4.3259,4.3341,4.3406,4.3433,4.3497,4.3539,4.3532,4.3556,4.355,4.3555,4.3423,4.3399,4.356,4.356,4.356,4.356,4.356,4.356,4.2911,4.3004,4.3012,4.3122,4.3148,4.3224,4.3254,4.3293,4.3326,4.3418,4.3472,4.349,4.3526,4.3591,4.365,4.3656,4.3678,4.3705,4.3707,4.3582,4.3565,4.3549,4.3526,4.3711,4.3712,4.3834,4.3835,4.3836]},{"header":{"parameterUnit":"m.s-1","parameterCategory":1,"la1":30.2991,"la2":30.254,"lo1":-89.0895,"lo2":-89.0444,"dy":0.0017,"dx":0.0017,"nx":28,"ny":28,"refTime":"2024-08-11T15:00:00:Z","depth":0,"parameterNumber":3,"parameterNumberName":"V-component_of_WINDS"},"data":[0,0,0,0,0,0,0,0,0,0,0,0,0,0,0,0,0,0,0,0,0,0,0,0,0,0,0,0,0,0,0,0,0,0,0,0,0,0,0,0,0,0,0,0,0,0,0,0,0,0,0,0,0,0,0,0,0,0,2.0039,2.0039,0,2.0082,2.0082,2.0083,2.0062,2.0061,2.006,2.0059,2.0101,2.0103,2.0105,0,0,0,0,0,0,0,0,0,0,0,0,0,1.9938,1.994,2.0039,2.004,2.004,2.0082,2.0082,2.0083,2.0062,2.0061,2.0059,2.0058,2.01,2.0103,2.0106,0,0,0,0,0,0,0,0,0,0,0,0,0,1.9981,1.994,2.0039,2.0035,2.0035,2.0081,2.0082,2.0083,2.0062,2.0061,2.0059,2.0057,2.01,2.0103,2.0106,2.0159,0,0,2.0116,2.0117,0,0,0,0,0,0,0,0,1.9979,1.9985,2.0035,2.0035,2.0035,2.0065,2.0062,2.0108,2.0063,2.0052,2.0059,2.0057,2.009,2.0094,2.0106,2.0161,2.0163,2.0116,2.0118,2.012,2.012,0,0,0,0,0,0,0,1.9976,1.9983,2.0056,2.0036,2.0036,2.003,2.0034,2.0071,2.008,2.0053,2.0051,2.0057,2.009,2.0103,2.0107,2.0163,2.0116,2.0119,2.0121,2.0122,2.0262,2.0264,0,0,0,0,0,0,1.9973,1.9981,2.0054,2.0057,2.0002,2.0033,2.0038,2.0057,2.0079,2.0081,2.0058,2.0055,2.0098,2.0103,2.0108,2.017,2.0119,2.0123,2.0124,2.026,2.0262,2.0264,0,0,0,0,0,0,1.9971,1.998,2.0053,2.0018,2.0027,2.0037,2.0058,2.0059,2.0071,2.0083,2.0085,2.0069,2.0097,2.0104,2.0146,2.0171,2.0124,2.0127,2.0258,2.0261,2.0263,2.0296,0,0,0,0,0,0,1.9968,1.9979,2.0,2.0019,2.0029,2.0091,2.006,2.0061,2.0077,2.0074,2.0094,2.0096,2.0096,2.0141,2.0149,2.0175,2.0129,2.0256,2.0259,2.0262,2.0292,2.0299,2.0305,0,0,0,0,0,1.9965,2.0008,2.0001,2.001,2.0055,2.0092,2.0098,2.0097,2.0079,2.01,2.0107,2.0095,2.0167,2.0146,2.0155,2.0182,2.0254,2.0258,2.0262,2.0289,2.0298,2.0305,0,0,0,0,0,0,1.9991,2.001,2.0003,2.0054,2.0072,2.0089,2.0115,2.0106,2.013,2.0126,2.0124,2.0129,2.0172,2.0181,2.0157,2.0233,2.0208,2.0214,2.0226,2.0234,2.024,2.0236,2.0132,0,0,0,0,0,2.0003,2.0032,2.0047,2.009,2.0099,2.0105,2.0121,2.0119,2.0138,2.0145,2.0156,2.0173,2.02,2.0217,2.0242,2.0294,2.0297,2.0316,2.0323,2.0328,2.0333,2.0359,2.0367,2.0277,2.0277,2.0277,0,0,2.0028,2.0042,2.006,2.0095,2.0109,2.0138,2.0112,2.0144,2.0165,2.015,2.019,2.0199,2.0218,2.0265,2.0286,2.0274,2.0358,2.0333,2.0337,2.0339,2.0364,2.0372,2.038,2.028,2.0279,2.0279,0,0,2.0087,2.0101,2.0138,2.0152,2.0173,2.0176,2.0185,2.0203,2.0208,2.0249,2.0237,2.0262,2.0308,2.0322,2.0335,2.0398,2.0388,2.0407,2.0439,2.0465,2.0472,2.0478,2.0499,2.0507,2.0412,2.0412,2.0412,0,2.0115,2.0159,2.0158,2.0191,2.0206,2.0193,2.0229,2.0243,2.0271,2.0281,2.0267,2.0324,2.0336,2.0385,2.04,2.0412,2.0421,2.0404,2.0471,2.0477,2.0483,2.0503,2.0511,2.0414,2.0414,2.0413,2.0413,0,2.0191,2.0222,2.0249,2.0276,2.0294,2.0329,2.0332,2.0351,2.0347,2.0352,2.0392,2.0407,2.0434,2.0445,2.0442,2.0493,2.0485,2.0471,2.0445,2.0493,2.0512,2.052,2.0417,2.0416,2.0415,2.0415,0,0,2.0269,2.0294,2.0304,2.0316,2.0337,2.036,2.0393,2.042,2.0435,2.0455,2.0482,2.052,2.0507,2.0522,2.052,2.0542,2.059,2.0526,2.0526,2.0536,2.0646,2.0655,2.0664,2.0583,2.0585,2.0586,2.0644,0,2.0329,2.0388,2.0387,2.0441,2.0468,2.0456,2.0485,2.05,2.0506,2.0529,2.0534,2.0561,2.0543,2.0551,2.0573,2.058,2.0612,2.0575,2.0607,2.0608,2.0602,2.0674,2.0685,2.0739,2.0651,2.0652,2.0653,0,2.0407,2.0429,2.0485,2.0501,2.0513,2.0539,2.0562,2.0585,2.0602,2.0604,2.062,2.0614,2.0647,2.0621,2.0665,2.064,2.0653,2.0658,2.066,2.0663,2.0633,2.0678,2.0756,2.0764,2.0665,2.0664,2.0663,0,2.0457,2.05,2.0539,2.0549,2.0569,2.0588,2.0597,2.0612,2.0628,2.0648,2.0658,2.0682,2.0694,2.0713,2.0713,2.0694,2.0757,2.0731,2.0759,2.0759,2.0772,2.0771,2.0852,2.0782,2.0782,2.0782,2.0781,0,2.0523,2.0558,2.0561,2.0585,2.0623,2.0622,2.0659,2.0667,2.068,2.0705,2.0696,2.0718,2.0718,2.0741,2.0741,2.0777,2.0783,2.0785,2.0784,2.0785,2.0785,2.0793,2.0789,2.0784,2.0783,2.0783,2.0783,0,2.0585,2.0589,2.063,2.0645,2.065,2.0677,2.069,2.0712,2.0716,2.0747,2.0754,2.076,2.0787,2.0789,2.082,2.082,2.0863,2.0859,2.0857,2.0856,2.0883,2.088,2.0972,2.0983,2.0906,2.0907,2.0907,0,2.0627,2.0653,2.0671,2.0687,2.0697,2.0722,2.0738,2.0737,2.0753,2.0774,2.0793,2.0819,2.0839,2.0882,2.0889,2.0912,2.0907,2.0938,2.0911,2.091,2.0906,2.0904,2.0906,2.0943,2.0944,2.0945,2.0945,0,2.07,2.07,2.0723,2.0746,2.0765,2.0783,2.08,2.0814,2.0815,2.0833,2.086,2.0876,2.0907,2.0932,2.0955,2.0963,2.0954,2.0954,2.0961,2.0962,2.0959,2.096,2.087,2.0952,2.0951,2.0951,2.095,2.095,2.0752,2.0774,2.079,2.0815,2.0828,2.0844,2.0865,2.0871,2.0894,2.0919,2.0917,2.0947,2.0962,2.0991,2.1001,2.1023,2.1013,2.1024,2.1026,2.1029,2.1031,2.0956,2.1027,2.1027,2.1027,2.1027,2.1027,0,2.0823,2.0833,2.0856,2.088,2.09,2.089,2.0908,2.0925,2.0951,2.0966,2.0986,2.1016,2.104,2.1048,2.1071,2.1088,2.1084,2.1093,2.1092,2.1094,2.1039,2.103,2.1096,2.1096,2.1096,2.1096,2.1096,2.1096,2.0863,2.09,2.0902,2.0944,2.0953,2.0982,2.0993,2.1007,2.1018,2.1053,2.1072,2.1078,2.109,2.1113,2.1134,2.1136,2.1144,2.1156,2.1155,2.1105,2.1098,2.1091,2.1082,2.1158,2.1158,2.1207,2.1208,2.1208]}]]